Precipitable_Water
1.31 1.28 1.29 1.33 1.44 1.43 1.43 1.48 1.53 1.53 1.55 1.54 1.51 1.49 1.48 1.44 1.41 1.39 1.34 1.35 1.43 1.38
1.27 1.33 1.35 1.38 1.41 1.39 1.42 1.44 1.45 1.45 1.43 1.47 1.50 1.49 1.45 1.43 1.40 1.42 1.41 1.41 1.41 1.39
1.22 1.25 1.29 1.31 1.31 1.34 1.38 1.40 1.38 1.40 1.43 1.45 1.46 1.47 1.45 1.40 1.42 1.37 1.34 1.38 1.37 1.40
1.12 1.19 1.20 1.22 1.23 1.24 1.28 1.33 1.37 1.36 1.39 1.40 1.36 1.38 1.38 1.37 1.38 1.34 1.34 1.39 1.32 1.32
0.83 0.90 0.91 0.96 1.03 1.09 1.10 1.13 1.12 1.16 1.22 1.27 1.35 1.38 1.34 1.31 1.30 1.29 1.28 1.31 1.33 1.30
0.68 0.68 0.67 0.69 0.71 0.74 0.77 0.81 0.84 0.88 0.92 0.99 1.06 1.15 1.24 1.29 1.30 1.29 1.28 1.28 1.24 1.27
0.63 0.63 0.64 0.65 0.65 0.65 0.66 0.66 0.69 0.73 0.75 0.77 0.81 0.88 0.96 1.02 1.08 1.15 1.17 1.20 1.23 1.23
0.52 0.53 0.53 0.53 0.54 0.56 0.56 0.57 0.59 0.60 0.62 0.67 0.70 0.75 0.79 0.83 0.86 0.91 0.97 1.02 1.08 1.13
0.38 0.38 0.38 0.40 0.42 0.43 0.45 0.49 0.51 0.53 0.55 0.55 0.60 0.65 0.69 0.72 0.73 0.76 0.79 0.84 0.93 0.99
0.28 0.27 0.27 0.28 0.29 0.30 0.32 0.35 0.37 0.43 0.47 0.48 0.55 0.60 0.64 0.65 0.67 0.69 0.72 0.76 0.79 0.84
0.23 0.22 0.22 0.22 0.22 0.23 0.25 0.26 0.28 0.29 0.34 0.41 0.48 0.53 0.57 0.63 0.65 0.65 0.68 0.71 0.74 0.76
0.21 0.20 0.19 0.19 0.20 0.21 0.21 0.22 0.23 0.28 0.28 0.29 0.35 0.44 0.50 0.55 0.59 0.61 0.63 0.69 0.72 0.75
0.20 0.20 0.19 0.19 0.20 0.22 0.22 0.22 0.24 0.26 0.27 0.25 0.29 0.37 0.42 0.50 0.53 0.54 0.59 0.65 0.68 0.72
0.21 0.22 0.21 0.21 0.22 0.22 0.22 0.22 0.22 0.22 0.24 0.26 0.29 0.32 0.40 0.43 0.49 0.51 0.53 0.57 0.63 0.68
Wind_Speed
21 23 21 19 21 28 30 26 31 31 33 33 36 38 36 37 38 40 39 37 37 37
15 14 15 17 21 19 25 29 26 30 30 32 35 36 38 38 37 36 37 38 41 41
13 9 9 9 11 12 15 24 27 29 31 35 37 39 38 38 37 37 38 36 35 37
5 10 8 8 9 10 12 14 17 20 23 25 28 30 32 32 33 35 34 34 33 31
1 4 6 8 9 11 12 14 16 19 21 22 23 25 29 30 29 30 32 32 31 29
5 6 8 9 11 13 15 16 18 20 21 23 23 25 27 29 30 32 32 32 32 32
11 12 13 14 15 17 18 20 22 23 25 25 26 29 30 31 32 33 34 34 34 34
15 17 18 20 21 23 24 25 26 27 28 28 30 31 32 33 34 35 35 36 36 36
20 21 23 24 25 26 27 28 29 30 31 32 33 34 35 36 37 37 38 38 38 38
24 26 27 29 30 31 31 32 33 34 35 36 37 37 38 38 38 39 40 40 40 40
29 31 33 34 35 36 38 39 39 39 39 40 41 42 42 42 42 41 41 42 42 42
35 37 39 40 41 42 43 44 44 45 45 45 45 45 45 46 46 45 44 44 43 44
41 42 44 46 47 48 49 49 48 48 48 48 48 48 47 47 48 49 48 47 46 46
45 48 49 50 51 52 52 53 53 53 52 52 51 50 48 48 48 49 49 49 48 48
Wind_Direction
241 247 250 252 238 230 232 236 228 230 228 230 231 231 237 243 247 248 254 251 251 255
247 245 244 252 232 238 231 229 230 229 232 234 233 239 246 249 249 248 248 255 259 259
234 239 233 237 232 231 236 232 236 241 244 242 244 247 249 253 252 251 253 255 259 260
225 223 232 238 241 243 244 243 246 243 242 246 247 247 247 251 251 249 250 252 255 258
252 237 249 257 252 257 258 256 253 253 252 251 250 250 249 249 249 246 248 250 250 250
301 285 276 274 271 268 266 265 263 263 260 257 256 255 253 251 249 249 251 250 248 247
299 295 292 287 283 280 277 275 273 271 269 266 264 261 258 256 255 253 252 251 250 248
299 295 293 291 288 285 283 281 279 277 274 271 269 267 264 261 259 257 255 253 252 250
299 296 293 291 287 285 282 281 279 277 274 271 268 267 266 264 261 259 257 256 255 253
296 294 293 290 288 286 284 282 279 277 275 272 270 268 266 265 262 260 258 256 254 253
296 295 294 291 289 287 285 283 280 278 276 274 271 270 268 266 263 261 258 256 253 251
296 295 293 291 289 288 286 284 280 278 277 275 273 272 269 266 263 261 258 257 254 252
297 295 293 291 289 287 286 283 282 279 277 276 274 273 270 266 263 260 258 256 254 252
297 295 293 292 290 288 285 284 282 280 277 275 273 271 269 267 264 261 257 255 253 251